カタログに戻る

STARLINK-11654

運用中通信VLEO
NORAD 63265·PAYLOAD·🇺🇸 United States

打ち上げ Mar 15, 2025 から Cape Canaveral Space Force Station

Loading…

次のパス (今後24時間)

TLE

最新Source: CelesTrak SupGP

元期: Sep 15, 2026, 02:18 UTC

1 63265C 25053A   26258.09631944 -.00082438  00000+0 -63980-3 0  2589
2 63265  43.0009  50.5071 0001679 268.9021 272.8098 15.70897431    11

AllMySatでSTARLINK-11654をリアルタイム追跡

Download on the App Store